EZY16KY EGCC-LJLJ

Flight info

Callsign EZY16KY
Flight time N/A
Altitude 37000
Route SANBA N859 HON L15 MOTOX DCT RUCAC DCT LESDO DCT ETINO DCT BEGAR DCT TRA DCT SUXAN DCT MALUG DCT VEKEN DCT DEGUM DEGU2L
Aircraft A320/M-SDE2E3FGHIJ1RWXYZ/LB1

Departure

Time N/A
Airport Manchester Airport (EGCC)

Arrival

Time 2026-04-18 11:43
Airport Ljubljana Jože Pučnik Airport (LJLJ)
Time Latitude Longitude Altitude Speed Heading
2026-04-18 10:45 48.25889 6.70590 37198 ft 462 kts 123°
2026-04-18 10:45 48.22626 6.78879 37179 ft 462 kts 123°
2026-04-18 10:46 48.19356 6.87162 37174 ft 461 kts 123°
2026-04-18 10:46 48.16089 6.95421 37191 ft 460 kts 123°
2026-04-18 10:47 48.12821 7.03644 37185 ft 459 kts 123°
2026-04-18 10:47 48.09572 7.11788 37187 ft 459 kts 123°
2026-04-18 10:48 48.06298 7.19973 37193 ft 459 kts 123°
2026-04-18 10:48 48.03044 7.28102 37200 ft 459 kts 123°
2026-04-18 10:49 47.99762 7.36273 37200 ft 459 kts 123°
2026-04-18 10:49 47.96468 7.44435 37190 ft 459 kts 123°
2026-04-18 10:50 47.93171 7.52583 37191 ft 459 kts 123°
2026-04-18 10:50 47.90170 7.60962 37196 ft 460 kts 111°
2026-04-18 10:51 47.87934 7.69892 37198 ft 460 kts 111°
2026-04-18 10:51 47.85672 7.78793 37199 ft 459 kts 112°
2026-04-18 10:52 47.83406 7.87680 37201 ft 459 kts 112°
2026-04-18 10:52 47.81137 7.96557 37201 ft 459 kts 112°
2026-04-18 10:53 47.78858 8.05423 37196 ft 459 kts 112°
2026-04-18 10:53 47.76582 8.14287 37196 ft 459 kts 112°
2026-04-18 10:54 47.74299 8.23136 37194 ft 458 kts 112°
2026-04-18 10:54 47.72012 8.31953 37192 ft 458 kts 112°
2026-04-18 10:55 47.69680 8.40772 37177 ft 458 kts 116°
2026-04-18 10:55 47.66298 8.48697 37203 ft 454 kts 130°
2026-04-18 10:56 47.62365 8.56028 37210 ft 454 kts 130°
2026-04-18 10:56 47.58443 8.63378 37216 ft 455 kts 130°
2026-04-18 10:57 47.54514 8.70718 37219 ft 455 kts 130°
2026-04-18 10:57 47.50576 8.78050 37198 ft 455 kts 130°
2026-04-18 10:58 47.46631 8.85372 37198 ft 455 kts 130°
2026-04-18 10:58 47.42683 8.92671 37190 ft 455 kts 130°
2026-04-18 10:59 47.38725 8.99952 37190 ft 455 kts 130°
2026-04-18 10:59 47.34784 9.07196 37192 ft 455 kts 130°
2026-04-18 11:00 47.30829 9.14481 37192 ft 455 kts 130°
2026-04-18 11:00 47.26835 9.21800 37198 ft 455 kts 130°
2026-04-18 11:01 47.22886 9.29001 37197 ft 455 kts 131°
2026-04-18 11:01 47.18907 9.36249 37184 ft 455 kts 130°
2026-04-18 11:02 47.12936 9.47088 37189 ft 455 kts 130°
2026-04-18 11:02 47.08949 9.54298 37200 ft 455 kts 131°
2026-04-18 11:03 47.04947 9.61499 37203 ft 455 kts 131°
2026-04-18 11:03 47.00956 9.68693 37201 ft 453 kts 130°
2026-04-18 11:04 46.96996 9.75820 37222 ft 453 kts 130°
2026-04-18 11:04 46.93002 9.82954 37204 ft 450 kts 131°
2026-04-18 11:05 46.89027 9.90057 37200 ft 452 kts 130°
2026-04-18 11:05 46.85074 9.97089 37203 ft 453 kts 131°
2026-04-18 11:06 46.81036 10.04261 37208 ft 453 kts 131°
2026-04-18 11:06 46.77027 10.11362 37213 ft 453 kts 131°
2026-04-18 11:07 46.73006 10.18454 37207 ft 453 kts 131°
2026-04-18 11:07 46.68990 10.25528 37210 ft 454 kts 130°
2026-04-18 11:08 46.64961 10.32608 37213 ft 454 kts 130°
2026-04-18 11:08 46.60933 10.39694 37217 ft 455 kts 128°
2026-04-18 11:09 46.57930 10.47751 37213 ft 455 kts 107°
2026-04-18 11:09 46.56985 10.56776 37217 ft 453 kts 86°
2026-04-18 11:10 46.57612 10.65862 37216 ft 452 kts 82°
2026-04-18 11:10 46.58297 10.74937 37214 ft 452 kts 82°
2026-04-18 11:11 46.58965 10.84027 37214 ft 452 kts 82°
2026-04-18 11:11 46.59628 10.93114 37207 ft 452 kts 82°
2026-04-18 11:12 46.60288 11.02206 37215 ft 452 kts 82°
2026-04-18 11:12 46.60950 11.11304 37201 ft 452 kts 82°
2026-04-18 11:13 46.61605 11.20396 37204 ft 452 kts 82°
2026-04-18 11:13 46.62246 11.29499 37146 ft 452 kts 82°
2026-04-18 11:14 46.62876 11.38602 37142 ft 452 kts 82°
2026-04-18 11:14 46.63500 11.47637 37149 ft 452 kts 82°
2026-04-18 11:15 46.64121 11.56721 37151 ft 451 kts 82°
2026-04-18 11:15 46.64730 11.65810 37162 ft 451 kts 82°
2026-04-18 11:16 46.65333 11.74901 37173 ft 451 kts 82°
2026-04-18 11:16 46.65935 11.83992 37170 ft 451 kts 83°
2026-04-18 11:17 46.66521 11.93078 37157 ft 451 kts 83°
2026-04-18 11:17 46.67097 12.02181 36907 ft 452 kts 83°
2026-04-18 11:18 46.67388 12.06735 36644 ft 452 kts 83°
2026-04-18 11:18 46.67673 12.11290 36385 ft 452 kts 83°
2026-04-18 11:18 46.67955 12.15845 36126 ft 452 kts 83°
2026-04-18 11:18 46.68238 12.20406 35929 ft 451 kts 83°
2026-04-18 11:19 46.68519 12.24951 35684 ft 449 kts 83°
2026-04-18 11:19 46.68799 12.29470 35438 ft 447 kts 83°
2026-04-18 11:19 46.69078 12.33967 35184 ft 445 kts 83°
2026-04-18 11:19 46.69351 12.38444 34933 ft 443 kts 83°
2026-04-18 11:20 46.69622 12.42916 34681 ft 442 kts 83°
2026-04-18 11:20 46.69887 12.47366 34432 ft 440 kts 83°
2026-04-18 11:20 46.70148 12.51792 34087 ft 437 kts 83°
2026-04-18 11:20 46.70394 12.56191 33516 ft 435 kts 85°
2026-04-18 11:21 46.70292 12.60591 32992 ft 435 kts 96°
2026-04-18 11:21 46.69701 12.64893 32484 ft 433 kts 104°
2026-04-18 11:21 46.69186 12.67692 32147 ft 431 kts 103°
2026-04-18 11:21 46.68419 12.71899 31635 ft 428 kts 103°
2026-04-18 11:22 46.67667 12.76083 31141 ft 425 kts 103°
2026-04-18 11:22 46.66929 12.80236 30664 ft 423 kts 103°
2026-04-18 11:22 46.66192 12.84361 30182 ft 420 kts 103°
2026-04-18 11:22 46.65453 12.88463 29677 ft 417 kts 103°
2026-04-18 11:23 46.64716 12.92511 29229 ft 412 kts 103°
2026-04-18 11:23 46.63984 12.96514 28792 ft 407 kts 103°
2026-04-18 11:23 46.63258 13.00481 28356 ft 403 kts 103°
2026-04-18 11:23 46.62544 13.04408 27923 ft 399 kts 103°
2026-04-18 11:24 46.61835 13.08289 27487 ft 395 kts 103°
2026-04-18 11:24 46.61133 13.12128 27055 ft 392 kts 103°
2026-04-18 11:24 46.60433 13.15947 26613 ft 389 kts 103°
2026-04-18 11:24 46.59738 13.19730 26171 ft 386 kts 103°
2026-04-18 11:25 46.59044 13.23486 25727 ft 383 kts 103°
2026-04-18 11:25 46.58354 13.27206 25270 ft 380 kts 103°
2026-04-18 11:25 46.57664 13.30911 24809 ft 380 kts 103°
2026-04-18 11:25 46.56978 13.34617 24329 ft 379 kts 103°
2026-04-18 11:26 46.56239 13.38286 23867 ft 379 kts 109°
2026-04-18 11:26 46.55213 13.41760 23355 ft 379 kts 112°
2026-04-18 11:26 46.54145 13.45245 22893 ft 377 kts 112°
2026-04-18 11:26 46.53085 13.48701 22443 ft 373 kts 112°
2026-04-18 11:27 46.52039 13.52128 21989 ft 370 kts 112°
2026-04-18 11:27 46.51000 13.55532 21549 ft 367 kts 112°
2026-04-18 11:27 46.49965 13.58915 21107 ft 366 kts 112°
2026-04-18 11:27 46.48934 13.62285 20673 ft 364 kts 112°
2026-04-18 11:28 46.47905 13.65640 20248 ft 364 kts 112°
2026-04-18 11:28 46.46877 13.68983 19812 ft 362 kts 112°
2026-04-18 11:28 46.45854 13.72303 19389 ft 360 kts 112°
2026-04-18 11:28 46.44833 13.75616 18967 ft 359 kts 111°
2026-04-18 11:29 46.43803 13.78972 18555 ft 359 kts 112°
2026-04-18 11:29 46.42789 13.82278 18083 ft 358 kts 112°
2026-04-18 11:29 46.41792 13.85513 17674 ft 354 kts 112°
2026-04-18 11:29 46.40787 13.88757 17259 ft 352 kts 112°
2026-04-18 11:30 46.39784 13.91985 16846 ft 350 kts 112°
2026-04-18 11:30 46.38784 13.95198 16452 ft 349 kts 112°
2026-04-18 11:30 46.37790 13.98392 16053 ft 347 kts 112°
2026-04-18 11:30 46.36801 14.01575 15663 ft 347 kts 112°
2026-04-18 11:31 46.35811 14.04745 15268 ft 345 kts 111°
2026-04-18 11:31 46.34824 14.07917 14871 ft 346 kts 112°
2026-04-18 11:31 46.33838 14.11076 14517 ft 343 kts 112°
2026-04-18 11:31 46.32854 14.14212 14176 ft 341 kts 112°
2026-04-18 11:32 46.31873 14.17336 13752 ft 339 kts 112°
2026-04-18 11:32 46.30898 14.20437 13356 ft 337 kts 112°
2026-04-18 11:32 46.29930 14.23521 12930 ft 336 kts 112°
2026-04-18 11:32 46.28972 14.26582 12513 ft 334 kts 112°
2026-04-18 11:33 46.28020 14.29618 12116 ft 332 kts 112°
2026-04-18 11:33 46.27070 14.32635 11760 ft 329 kts 112°
2026-04-18 11:33 46.26126 14.35631 11408 ft 325 kts 112°
2026-04-18 11:33 46.25188 14.38610 10997 ft 324 kts 112°
2026-04-18 11:34 46.24198 14.41509 10625 ft 322 kts 120°
2026-04-18 11:34 46.22780 14.44012 10264 ft 322 kts 136°
2026-04-18 11:34 46.21069 14.46003 9999 ft 316 kts 141°
2026-04-18 11:34 46.19332 14.47960 9325 ft 322 kts 141°
2026-04-18 11:35 46.17547 14.49974 8692 ft 325 kts 140°
2026-04-18 11:35 46.15811 14.51960 8161 ft 313 kts 140°
2026-04-18 11:35 46.14155 14.53913 7661 ft 302 kts 139°
2026-04-18 11:35 46.12571 14.55804 7222 ft 290 kts 139°
2026-04-18 11:36 46.11044 14.57627 6804 ft 280 kts 139°
2026-04-18 11:36 46.09570 14.59379 6385 ft 270 kts 139°
2026-04-18 11:36 46.08147 14.61066 5971 ft 260 kts 139°
2026-04-18 11:36 46.06801 14.62724 5625 ft 249 kts 131°
2026-04-18 11:37 46.06041 14.64822 5421 ft 230 kts 97°
2026-04-18 11:37 46.06170 14.66998 5250 ft 213 kts 66°
2026-04-18 11:37 46.06996 14.68679 5041 ft 205 kts 37°
2026-04-18 11:37 46.08233 14.69501 4972 ft 191 kts 10°
2026-04-18 11:38 46.09507 14.69416 4861 ft 180 kts 343°
2026-04-18 11:38 46.10571 14.68578 4709 ft 172 kts 318°
2026-04-18 11:38 46.11319 14.67268 4525 ft 168 kts 307°
2026-04-18 11:38 46.12007 14.65929 4301 ft 164 kts 307°
2026-04-18 11:39 46.12660 14.64662 4108 ft 154 kts 307°
2026-04-18 11:39 46.13289 14.63441 3895 ft 151 kts 307°
2026-04-18 11:39 46.13911 14.62233 3694 ft 149 kts 307°
2026-04-18 11:39 46.14526 14.61038 3495 ft 148 kts 307°
2026-04-18 11:40 46.15141 14.59843 3302 ft 148 kts 307°
2026-04-18 11:40 46.15758 14.58645 3108 ft 149 kts 307°
2026-04-18 11:40 46.16373 14.57448 2903 ft 148 kts 307°
2026-04-18 11:40 46.16986 14.56257 2705 ft 148 kts 307°
2026-04-18 11:41 46.17598 14.55066 2514 ft 148 kts 307°
2026-04-18 11:41 46.18211 14.53872 2316 ft 148 kts 307°
2026-04-18 11:41 46.18824 14.52678 2124 ft 148 kts 306°
2026-04-18 11:41 46.19433 14.51492 1925 ft 147 kts 306°
2026-04-18 11:42 46.20039 14.50310 1717 ft 147 kts 306°
2026-04-18 11:42 46.20652 14.49113 1513 ft 150 kts 306°
2026-04-18 11:42 46.21275 14.47904 1336 ft 150 kts 305°
2026-04-18 11:42 46.21881 14.46708 1230 ft 138 kts 303°
2026-04-18 11:43 46.22349 14.45799 1255 ft 89 kts 307°
2026-04-18 11:43 46.22536 14.45478 1262 ft 27 kts 316°
2026-04-18 11:43 46.22642 14.45378 1266 ft 15 kts 333°
2026-04-18 11:43 46.22722 14.45340 1263 ft 10 kts 347°
2026-04-18 11:44 46.22783 14.45322 1263 ft 8 kts 349°
2026-04-18 11:44 46.22828 14.45315 1259 ft 6 kts
2026-04-18 11:44 46.22859 14.45331 1267 ft 4 kts 33°
2026-04-18 11:44 46.22881 14.45355 1265 ft 4 kts 37°
2026-04-18 11:45 46.22901 14.45376 1265 ft 3 kts 37°
2026-04-18 11:45 46.22919 14.45396 1259 ft 3 kts 37°
2026-04-18 11:45 46.22936 14.45407 1258 ft 3 kts 17°
2026-04-18 11:45 46.22973 14.45435 1258 ft 6 kts 36°
2026-04-18 11:46 46.22996 14.45460 1266 ft 1 kts 36°
2026-04-18 11:46 46.22998 14.45462 1258 ft 1 kts 36°
2026-04-18 11:46 46.23001 14.45464 1258 ft 0 kts 36°
2026-04-18 11:46 46.23003 14.45466 1258 ft 0 kts 36°
2026-04-18 11:47 46.23003 14.45467 1258 ft 0 kts 36°